ARIANE 5 R/B, 39036

Orbit data source: Space-Track

ARIANE 5 R/B, 39036 is space debris in HEO originally from a launch on Wed, 19 Dec 2012 UTC launched from the French Guiana (FRGUI). Debris objects in space refer to the collection of defunct objects orbiting the Earth. Examples of debris include non-operational satellites, rocket bodies, and fragments generated from explosions, collisions, or faulty payload assembly.

Loading next visibility...
Identifier
39036, 2012-075C
Orbit
HEO
Country
Flag of FRFR
Related business
Manufacturer
EADS/LV
Mission
Spacecraft
Bus & Motor
ESC-A, Unknown motor
Mass
~5,000 kg wet, ~5,000 kg dry
Launch date (UTC)
2012-12-19 (13 years ago)
Launch vehicle
Unknown
Launch site
French Guiana (FRGUI)
Object type
Payload
Rocket body
Debris
Shape & HBR
Cyl + 1 Nozzle, 3.5 m
Radar Cross Section
41.627 m², Large (>1 m²)

Expand to show TLE details & history
Last TLE update: 16 hours ago

TLE from 16 hours ago
0 ARIANE 5 R/B
1 39036U 12075C   25354.96029390  .00003867  00000-0  13815-2 0  9997
2 39036   2.7513 325.2295 7125895 340.4163   2.1647  2.47069468112322
Epoch: 2025-12-20T23:02Z
TLE epoch observation values (Epoch: 2025-12-20T23:02:49.392Z)
Latitude
0.00004°
Longitude
-110.35002°
Altitude
421.103 km
Speed
9.999 km/s
True Right ascension
21h 40m 32s
True Declination
0° 00' 00"
Sunlit
Object was in daylight at epoch
Visualization orbit readout
Latitude
Unknown
Longitude
Unknown
Altitude
Unknown
Speed
Unknown
Apparent Right ascension
Unknown
Apparent Declination
Unknown
Sunlit
N/A
Visualization observer readout
Local Sidereal Time
13:56:59
Azimuth
Unknown
Elevation
Unknown
Doppler factor
Unknown
Orbital elements
Apogee altitude
33,214.339 km
Perigee altitude
266.359 km
Semi-major axis
23,118.486 km
Eccentricity
0.71259
Inclination
2.7513°
RAAN
325.2295°
Arg. of periapsis
340.4163°
True anomaly
18.13001°
Mean anomaly
2.1647°
Eccentric anomaly
7.47912°
Mean motion
0.61745 °/min
Orbital period
583.04 mins
BSTAR
0.0013815
Loading maneuver chart data...
Computing Atmospheric mass density...
Loading historical data...
Loading historical data...
Loading historical data...
Loading historical data...
Loading historical data...
Loading historical data...
Loading historical data...
Other satellites on launch #75 in the year 2012 (2012-12-19 UTC)

Documentation

Showing up to 5 results
|